Weather in La Molina

Spain     42°20′41″N   1°57′18″E
temp.,
°C
wind,
m/s
gust,
m/s
humid.,
%
clouds,
%
prec.,
mm/h
press.,
hPa
HPBL,
m
28 february, sun
sun2801:00+4e019386 1.4 102582
04:00+3wnw019167 0.6 1024121
07:00+2wnw019675 4.0 1025127
10:00+5s118171 0.6 1025483
13:00+7sse227181 0.8 1025838
16:00+7sse236796 0.2 1024953
19:00+3ese129572 0.3 102523
22:00+1nne22926 0.0 102625
1 march, mon
mon101:00+1nne12863 0.0 102722
04:00+1nne11720 0.0 102622
07:00+1n12690 0.0 102722
10:00+7se11510 0.0 1026328
13:00+11sse224010 0.0 1026923
16:00+10sse224941 0.0 1025974
19:00+4e119051 0.0 102623
22:00+3ne127736 0.0 102722
2 march, tue
tue201:00+2nne115560 0.0 102822
04:00+2n124842 0.0 102722
07:00+2n114748 0.0 102822
10:00+7nnw235698 0.0 1029271
13:00+12wsw235593 0.0 10291182
16:00+12s225196 0.1 10281334
19:00+6s117798 0.1 103022
22:00+4nnw1185100 0.0 103122
3 march, wed
wed301:00+3nnw128571 0.0 103122
04:00+3nnw22855 0.0 103022
07:00+3n227911 0.0 103022
10:00+10ssw115512 0.0 1030314
13:00+12s21536 0.0 1029870
16:00+12s21560 0.1 10271002
19:00+6s11868 0.1 102722
22:00+4wnw11950 0.0 102722
4 march, thu
thu401:00+3nnw12933 0.0 102622
04:00+3nnw11900 0.0 102422
07:00+2nnw11880 0.0 102322
10:00+9ssw11640 0.0 1022326
13:00+11s31611 0.1 1021915
16:00+10s227288 1.4 1018732
19:00+7s118994 2.5 101849
22:00+6nne1294100 6.9 1019320